RH
46 46 45 44 42 41 40 39 38 35 32 31 29 25 22 19 17 16 15 14 13 12
51 50 49 48 46 44 43 40 39 37 36 34 33 30 26 23 21 18 17 16 14 14
57 56 54 52 49 47 44 42 41 40 40 39 38 35 33 29 26 22 19 15 13 12
66 61 58 54 50 46 45 46 46 45 46 45 44 41 38 35 31 25 20 16 15 14
64 56 51 48 47 46 45 45 44 43 44 44 43 41 40 38 36 29 23 19 17 16
53 50 47 45 43 42 41 41 41 41 40 39 40 41 42 42 38 35 27 21 18 17
46 44 42 41 41 40 40 40 43 44 43 44 49 51 52 49 45 40 34 27 25 23
43 42 41 40 40 41 43 46 49 50 51 52 57 58 56 56 52 49 41 35 33 33
40 40 41 43 45 47 49 51 53 58 57 58 64 65 65 68 62 56 50 48 48 48
42 42 44 45 47 49 51 54 56 63 66 66 70 71 69 73 70 66 62 58 51 43
46 46 48 49 49 51 56 61 62 64 69 73 76 77 80 82 79 68 61 57 49 44
49 50 50 52 54 55 57 62 68 69 71 75 77 79 80 78 75 68 61 56 53 47
45 47 49 53 55 57 57 59 66 71 73 76 77 77 76 81 77 66 61 56 51 48
40 43 45 47 51 54 58 61 63 64 69 75 78 77 76 79 79 75 69 61 55 55